| time (UTC) | temp F | wind direction | speed MPH | gust MPH | rain 1hr in | rain 24hr in | rain mn in | humidity % | barometer mb |
| 20260903135338 | 56 | 0 | 0.0 | 0.0 | 0.02 | 0.46 | 0.19 | 100 | 1007.3 |
| 20260903134834 | 56 | 0 | 0.0 | 0.0 | 0.02 | 0.46 | 0.19 | 100 | 1007.4 |
| 20260903133837 | 56 | 0 | 0.0 | 0.0 | 0.03 | 0.46 | 0.19 | 100 | 1007.4 |
| 20260903133336 | 56 | 0 | 0.0 | 0.0 | 0.02 | 0.46 | 0.19 | 100 | 1007.3 |
| 20260903132835 | 56 | 0 | 0.0 | 0.0 | 0.02 | 0.46 | 0.18 | 100 | 1007.3 |
| 20260903131834 | 57 | 0 | 0.0 | 0.0 | 0.03 | 0.46 | 0.18 | 100 | 1007.3 |
| 20260903131336 | 57 | 0 | 0.0 | 0.0 | 0.02 | 0.46 | 0.18 | 100 | 1007.2 |
| 20260903130835 | 57 | 0 | 0.0 | 0.0 | 0.02 | 0.46 | 0.18 | 100 | 1007.2 |
| 20260903130336 | 57 | 0 | 0.0 | 0.0 | 0.03 | 0.44 | 0.17 | 100 | 1007.1 |
| 20260903125834 | 57 | 0 | 0.0 | 0.0 | 0.03 | 0.44 | 0.17 | 100 | 1007.1 |
| 20260903124834 | 57 | 0 | 0.0 | 0.0 | 0.03 | 0.44 | 0.17 | 100 | 1007.1 |
| 20260903123835 | 57 | 0 | 0.0 | 0.0 | 0.03 | 0.44 | 0.16 | 99 | 1007.2 |
| 20260903123337 | 57 | 0 | 0.0 | 0.0 | 0.04 | 0.44 | 0.16 | 99 | 1007.2 |
| 20260903122834 | 57 | 0 | 0.0 | 0.0 | 0.04 | 0.44 | 0.16 | 99 | 1007.2 |
| 20260903122338 | 57 | 0 | 0.0 | 0.0 | 0.03 | 0.44 | 0.16 | 99 | 1007.3 |
| 20260903121834 | 57 | 0 | 0.0 | 0.0 | 0.03 | 0.44 | 0.15 | 99 | 1007.3 |
| 20260903120835 | 57 | 0 | 0.0 | 0.0 | 0.04 | 0.44 | 0.15 | 99 | 1007.4 |
| 20260903120336 | 57 | 0 | 0.0 | 0.0 | 0.03 | 0.40 | 0.15 | 99 | 1007.4 |
| 20260903115834 | 57 | 0 | 0.0 | 0.0 | 0.03 | 0.40 | 0.14 | 99 | 1007.4 |
| 20260903115339 | 57 | 0 | 0.0 | 0.0 | 0.04 | 0.40 | 0.14 | 99 | 1007.6 |
| 20260903114834 | 57 | 0 | 0.0 | 0.0 | 0.04 | 0.40 | 0.14 | 99 | 1007.6 |
| 20260903114336 | 57 | 0 | 0.0 | 0.0 | 0.04 | 0.40 | 0.14 | 99 | 1007.7 |
| 20260903113336 | 57 | 0 | 0.0 | 0.0 | 0.03 | 0.40 | 0.13 | 99 | 1007.7 |
| 20260903112834 | 57 | 0 | 0.0 | 0.0 | 0.03 | 0.40 | 0.13 | 99 | 1007.7 |
| 20260903111834 | 57 | 0 | 0.0 | 0.0 | 0.04 | 0.40 | 0.12 | 99 | 1007.7 |
| 20260903111334 | 56 | 0 | 0.0 | 0.0 | 0.03 | 0.40 | 0.12 | 99 | 1007.7 |
| 20260903110835 | 56 | 0 | 0.0 | 0.0 | 0.03 | 0.40 | 0.12 | 99 | 1007.6 |
| 20260903105834 | 57 | 0 | 0.0 | 0.0 | 0.04 | 0.37 | 0.11 | 99 | 1007.8 |
| 20260903105338 | 57 | 0 | 0.0 | 0.0 | 0.03 | 0.37 | 0.11 | 99 | 1007.7 |
| 20260903104835 | 57 | 0 | 0.0 | 0.0 | 0.03 | 0.37 | 0.10 | 99 | 1007.7 |
| 20260903104335 | 57 | 0 | 0.0 | 10.0 | 0.03 | 0.37 | 0.10 | 99 | 1007.6 |
| 20260903103835 | 57 | 205 | 0.0 | 10.0 | 0.03 | 0.37 | 0.10 | 99 | 1007.7 |
| 20260903103336 | 58 | 208 | 0.0 | 10.0 | 0.04 | 0.37 | 0.09 | 99 | 1007.7 |
| 20260903102834 | 58 | 207 | 2.0 | 9.0 | 0.04 | 0.37 | 0.09 | 99 | 1007.7 |
| 20260903102454 | 58 | 205 | 7.0 | 8.0 | 0.03 | 0.37 | 0.09 | 99 | 1007.7 |
| 20260903102338 | 58 | 205 | 7.0 | 8.0 | 0.03 | 0.37 | 0.09 | 99 | 1007.7 |
| 20260903101834 | 58 | 208 | 0.0 | 8.0 | 0.03 | 0.37 | 0.09 | 99 | 1007.6 |
| 20260903101334 | 58 | 203 | 5.0 | 7.0 | 0.04 | 0.37 | 0.08 | 99 | 1007.6 |
| 20260903100836 | 58 | 0 | 0.0 | 4.0 | 0.04 | 0.37 | 0.08 | 99 | 1007.6 |
| 20260903100335 | 58 | 201 | 0.0 | 4.0 | 0.04 | 0.33 | 0.08 | 99 | 1007.5 |
| 20260903095834 | 58 | 0 | 1.0 | 1.0 | 0.04 | 0.33 | 0.07 | 99 | 1007.5 |
| 20260903095337 | 58 | 0 | 0.0 | 0.0 | 0.05 | 0.33 | 0.07 | 98 | 1007.5 |
| 20260903094834 | 58 | 0 | 0.0 | 0.0 | 0.05 | 0.33 | 0.07 | 98 | 1007.5 |
| 20260903094337 | 58 | 0 | 0.0 | 0.0 | 0.06 | 0.33 | 0.06 | 98 | 1007.4 |
| 20260903093336 | 58 | 0 | 0.0 | 0.0 | 0.05 | 0.33 | 0.06 | 98 | 1007.6 |
| 20260903092834 | 58 | 0 | 0.0 | 0.0 | 0.05 | 0.33 | 0.06 | 98 | 1007.5 |
| 20260903091834 | 58 | 0 | 0.0 | 0.0 | 0.05 | 0.33 | 0.05 | 98 | 1007.7 |
| 20260903091337 | 58 | 0 | 0.0 | 0.0 | 0.04 | 0.33 | 0.04 | 98 | 1007.7 |
| 20260903090835 | 58 | 0 | 0.0 | 0.0 | 0.04 | 0.33 | 0.04 | 98 | 1007.6 |
| 20260903090336 | 58 | 0 | 0.0 | 0.0 | 0.03 | 0.29 | 0.04 | 97 | 1007.5 |
| 20260903085834 | 58 | 0 | 0.0 | 0.0 | 0.03 | 0.29 | 0.03 | 97 | 1007.6 |
| 20260903084834 | 58 | 0 | 0.0 | 0.0 | 0.02 | 0.29 | 0.02 | 97 | 1007.8 |
| 20260903083835 | 59 | 0 | 0.0 | 0.0 | 0.00 | 0.29 | 0.01 | 96 | 1007.6 |
| 20260903082834 | 58 | 0 | 0.0 | 0.0 | 0.00 | 0.29 | 0.00 | 96 | 1007.6 |
| 20260903082337 | 58 | 0 | 0.0 | 0.0 | 0.00 | 0.29 | 0.00 | 96 | 1007.5 |
| 20260903081834 | 58 | 0 | 0.0 | 0.0 | 0.00 | 0.29 | 0.00 | 96 | 1007.7 |
| 20260903080835 | 58 | 0 | 0.0 | 0.0 | 0.00 | 0.29 | 0.00 | 96 | 1007.7 |
| 20260903080336 | 58 | 0 | 0.0 | 0.0 | 0.00 | 0.29 | 0.00 | 96 | 1007.6 |
| 20260903075834 | 58 | 0 | 0.0 | 0.0 | 0.00 | 0.29 | 0.00 | 97 | 1007.7 |
| 20260903074834 | 58 | 0 | 0.0 | 0.0 | 0.01 | 0.29 | 0.00 | 97 | 1007.8 |
| 20260903073337 | 58 | 0 | 0.0 | 0.0 | 0.01 | 0.29 | 0.00 | 97 | 1007.8 |
| 20260903073138 | 58 | 0 | 0.0 | 0.0 | 0.01 | 0.29 | 0.00 | 97 | 1007.8 |
| 20260903072834 | 58 | 0 | 0.0 | 0.0 | 0.01 | 0.29 | 0.00 | 97 | 1007.8 |
| 20260903072334 | 58 | 0 | 0.0 | 0.0 | 0.01 | 0.29 | 0.00 | 97 | 1007.8 |
| 20260903071834 | 58 | 0 | 0.0 | 0.0 | 0.01 | 0.29 | 0.00 | 97 | 1007.8 |
| 20260903071335 | 58 | 0 | 0.0 | 4.0 | 0.01 | 0.29 | 0.00 | 97 | 1007.8 |
| 20260903070835 | 58 | 180 | 0.0 | 4.0 | 0.01 | 0.29 | 0.00 | 97 | 1007.8 |
| 20260903070336 | 58 | 0 | 1.0 | 1.0 | 0.01 | 0.29 | 0.00 | 97 | 1007.7 |
| 20260903065834 | 58 | 0 | 0.0 | 0.0 | 0.01 | 0.29 | 0.29 | 97 | 1007.7 |
| 20260903064834 | 58 | 0 | 0.0 | 0.0 | 0.00 | 0.29 | 0.29 | 97 | 1007.8 |
| 20260903064337 | 58 | 0 | 0.0 | 0.0 | 0.00 | 0.28 | 0.28 | 97 | 1007.7 |
| 20260903063835 | 58 | 0 | 0.0 | 0.0 | 0.00 | 0.28 | 0.28 | 97 | 1007.7 |
| 20260903063423 | 58 | 0 | 0.0 | 0.0 | 0.00 | 0.28 | 0.28 | 97 | 1007.8 |
| 20260903063335 | 58 | 0 | 0.0 | 0.0 | 0.00 | 0.28 | 0.28 | 97 | 1007.8 |
| 20260903062834 | 58 | 0 | 0.0 | 0.0 | 0.00 | 0.28 | 0.28 | 97 | 1007.8 |
| 20260903062338 | 58 | 0 | 0.0 | 0.0 | 0.00 | 0.28 | 0.28 | 97 | 1007.8 |
| 20260903061834 | 58 | 0 | 0.0 | 0.0 | 0.00 | 0.28 | 0.28 | 97 | 1007.9 |
| 20260903061335 | 58 | 0 | 0.0 | 0.0 | 0.00 | 0.28 | 0.28 | 97 | 1007.9 |
| 20260903060835 | 58 | 0 | 0.0 | 0.0 | 0.00 | 0.28 | 0.28 | 97 | 1007.9 |
| 20260903060335 | 58 | 0 | 0.0 | 0.0 | 0.00 | 0.28 | 0.28 | 97 | 1007.9 |
| 20260903055834 | 58 | 0 | 0.0 | 0.0 | 0.00 | 0.28 | 0.28 | 97 | 1008.0 |
| 20260903055338 | 58 | 0 | 0.0 | 0.0 | 0.00 | 0.28 | 0.28 | 97 | 1008.0 |
| 20260903054834 | 57 | 0 | 0.0 | 0.0 | 0.00 | 0.28 | 0.28 | 97 | 1008.0 |
| 20260903054336 | 57 | 0 | 0.0 | 0.0 | 0.00 | 0.28 | 0.28 | 97 | 1008.1 |
| 20260903053837 | 57 | 0 | 0.0 | 0.0 | 0.00 | 0.28 | 0.28 | 97 | 1008.1 |
| 20260903053337 | 58 | 0 | 0.0 | 0.0 | 0.00 | 0.28 | 0.28 | 97 | 1008.0 |
| 20260903052834 | 57 | 0 | 0.0 | 0.0 | 0.00 | 0.28 | 0.28 | 97 | 1008.0 |
| 20260903051834 | 57 | 0 | 0.0 | 0.0 | 0.00 | 0.28 | 0.28 | 97 | 1008.0 |
| 20260903051336 | 57 | 0 | 0.0 | 0.0 | 0.00 | 0.28 | 0.28 | 97 | 1008.0 |
| 20260903050834 | 57 | 0 | 0.0 | 0.0 | 0.00 | 0.28 | 0.28 | 97 | 1008.0 |
| 20260903045834 | 57 | 0 | 0.0 | 0.0 | 0.00 | 0.28 | 0.28 | 97 | 1008.0 |
| 20260903045337 | 57 | 0 | 0.0 | 0.0 | 0.00 | 0.28 | 0.28 | 97 | 1008.0 |
| 20260903044834 | 57 | 0 | 0.0 | 0.0 | 0.00 | 0.28 | 0.28 | 97 | 1007.9 |
| 20260903043834 | 57 | 0 | 0.0 | 0.0 | 0.00 | 0.28 | 0.28 | 97 | 1008.0 |
| 20260903043336 | 57 | 0 | 0.0 | 0.0 | 0.00 | 0.28 | 0.28 | 97 | 1008.0 |
| 20260903042834 | 58 | 0 | 0.0 | 0.0 | 0.00 | 0.28 | 0.28 | 97 | 1008.0 |
| 20260903041834 | 58 | 0 | 0.0 | 0.0 | 0.01 | 0.28 | 0.28 | 97 | 1007.9 |
| 20260903041334 | 58 | 0 | 0.0 | 0.0 | 0.01 | 0.28 | 0.28 | 96 | 1007.9 |
| 20260903040835 | 58 | 0 | 0.0 | 0.0 | 0.01 | 0.28 | 0.28 | 96 | 1007.8 |
| 20260903035834 | 58 | 0 | 0.0 | 0.0 | 0.01 | 0.28 | 0.28 | 96 | 1007.7 |
| 20260903035339 | 58 | 0 | 0.0 | 0.0 | 0.01 | 0.28 | 0.28 | 96 | 1007.6 |
| 20260903034834 | 59 | 0 | 0.0 | 0.0 | 0.01 | 0.28 | 0.28 | 96 | 1007.6 |
| 20260903034335 | 59 | 0 | 0.0 | 0.0 | 0.01 | 0.28 | 0.28 | 96 | 1007.6 |
| 20260903033834 | 59 | 0 | 0.0 | 0.0 | 0.01 | 0.28 | 0.28 | 96 | 1007.6 |
| 20260903033336 | 59 | 0 | 0.0 | 0.0 | 0.01 | 0.28 | 0.28 | 96 | 1007.4 |
| 20260903032834 | 59 | 0 | 0.0 | 0.0 | 0.01 | 0.28 | 0.28 | 96 | 1007.4 |
| 20260903032339 | 59 | 0 | 0.0 | 0.0 | 0.00 | 0.27 | 0.27 | 95 | 1007.4 |
| 20260903031834 | 59 | 0 | 0.0 | 0.0 | 0.00 | 0.27 | 0.27 | 95 | 1007.4 |
| 20260903031336 | 59 | 0 | 0.0 | 0.0 | 0.00 | 0.27 | 0.27 | 95 | 1007.5 |
| 20260903030337 | 59 | 226 | 0.0 | 5.0 | 0.00 | 0.27 | 0.27 | 94 | 1007.5 |
| 20260903025833 | 59 | 204 | 3.0 | 4.0 | 0.00 | 0.27 | 0.27 | 94 | 1007.4 |
| 20260903024833 | 59 | 215 | 3.0 | 5.0 | 0.00 | 0.27 | 0.27 | 94 | 1007.3 |
| 20260903024336 | 59 | 214 | 0.0 | 5.0 | 0.00 | 0.27 | 0.27 | 94 | 1007.3 |
| 20260903023834 | 59 | 218 | 3.0 | 5.0 | 0.00 | 0.27 | 0.27 | 94 | 1007.4 |
| 20260903023336 | 59 | 205 | 3.0 | 5.0 | 0.00 | 0.27 | 0.27 | 94 | 1007.4 |
| 20260903022834 | 59 | 207 | 1.0 | 5.0 | 0.00 | 0.27 | 0.27 | 94 | 1007.4 |
| 20260903022337 | 59 | 218 | 4.0 | 5.0 | 0.00 | 0.27 | 0.27 | 93 | 1007.4 |
| 20260903021833 | 60 | 201 | 3.0 | 5.0 | 0.00 | 0.27 | 0.27 | 93 | 1007.2 |
| 20260903021336 | 60 | 233 | 3.0 | 5.0 | 0.00 | 0.27 | 0.27 | 93 | 1007.2 |
| 20260903015927 | 60 | 215 | 4.0 | 5.0 | 0.00 | 0.27 | 0.27 | 93 | 1007.1 |
| 20260903015833 | 60 | 215 | 4.0 | 5.0 | 0.00 | 0.27 | 0.27 | 93 | 1007.1 |
| 20260903015337 | 60 | 194 | 4.0 | 8.0 | 0.00 | 0.27 | 0.27 | 92 | 1007.1 |
| 20260903014833 | 60 | 252 | 5.0 | 8.0 | 0.00 | 0.27 | 0.27 | 92 | 1007.1 |
| 20260903014336 | 60 | 228 | 5.0 | 6.0 | 0.00 | 0.27 | 0.27 | 92 | 1007.1 |
| 20260903013835 | 61 | 222 | 4.0 | 6.0 | 0.00 | 0.27 | 0.27 | 92 | 1007.1 |
| 20260903013335 | 61 | 224 | 5.0 | 6.0 | 0.00 | 0.27 | 0.27 | 92 | 1007.1 |
| 20260903012834 | 61 | 214 | 5.0 | 6.0 | 0.00 | 0.27 | 0.27 | 92 | 1007.1 |
| 20260903012339 | 61 | 219 | 5.0 | 6.0 | 0.00 | 0.27 | 0.27 | 92 | 1007.1 |
| 20260903011833 | 61 | 211 | 4.0 | 6.0 | 0.00 | 0.27 | 0.27 | 92 | 1007.0 |
| 20260903011334 | 61 | 204 | 4.0 | 6.0 | 0.00 | 0.27 | 0.27 | 92 | 1007.1 |
| 20260903005834 | 62 | 232 | 6.0 | 7.0 | 0.00 | 0.27 | 0.27 | 90 | 1007.0 |
| 20260903004833 | 62 | 225 | 6.0 | 7.0 | 0.00 | 0.27 | 0.27 | 90 | 1007.0 |
| 20260903003834 | 63 | 228 | 6.0 | 8.0 | 0.00 | 0.27 | 0.27 | 89 | 1006.9 |
| 20260903002834 | 63 | 211 | 6.0 | 7.0 | 0.00 | 0.27 | 0.27 | 90 | 1006.8 |
| 20260903001833 | 63 | 214 | 5.0 | 7.0 | 0.00 | 0.27 | 0.27 | 90 | 1006.7 |
| 20260903000336 | 63 | 0 | 0.0 | 0.0 | 0.00 | 0.27 | 0.27 | 91 | 1006.6 |
| 20260902235833 | 63 | 0 | 0.0 | 0.0 | 0.00 | 0.27 | 0.27 | 91 | 1006.5 |
| 20260902235333 | 63 | 0 | 0.0 | 0.0 | 0.00 | 0.27 | 0.27 | 92 | 1006.4 |
| 20260902234833 | 63 | 0 | 0.0 | 0.0 | 0.00 | 0.27 | 0.27 | 91 | 1006.4 |
| 20260902234335 | 63 | 0 | 0.0 | 0.0 | 0.00 | 0.27 | 0.27 | 90 | 1006.5 |
| 20260902232833 | 63 | 0 | 0.0 | 0.0 | 0.00 | 0.27 | 0.27 | 93 | 1006.2 |
| 20260902232337 | 63 | 0 | 0.0 | 0.0 | 0.00 | 0.27 | 0.27 | 93 | 1006.2 |
| 20260902231833 | 63 | 0 | 0.0 | 0.0 | 0.00 | 0.27 | 0.27 | 93 | 1006.2 |
| 20260902231335 | 63 | 0 | 0.0 | 0.0 | 0.00 | 0.27 | 0.27 | 94 | 1006.1 |
| 20260902230335 | 63 | 0 | 0.0 | 0.0 | 0.00 | 0.27 | 0.27 | 96 | 1006.1 |
| 20260902225833 | 63 | 0 | 0.0 | 0.0 | 0.00 | 0.27 | 0.27 | 97 | 1006.0 |
| 20260902225334 | 63 | 0 | 0.0 | 0.0 | 0.00 | 0.27 | 0.27 | 98 | 1005.9 |
| 20260902224833 | 63 | 0 | 0.0 | 0.0 | 0.00 | 0.27 | 0.27 | 98 | 1005.8 |
| 20260902224335 | 63 | 0 | 0.0 | 0.0 | 0.00 | 0.27 | 0.27 | 99 | 1005.6 |
| 20260902223834 | 63 | 0 | 0.0 | 0.0 | 0.00 | 0.27 | 0.27 | 99 | 1005.8 |
| 20260902222924 | 62 | 0 | 0.0 | 0.0 | 0.00 | 0.27 | 0.27 | 99 | 1005.8 |
| 20260902222833 | 62 | 0 | 0.0 | 0.0 | 0.00 | 0.27 | 0.27 | 99 | 1005.8 |
| 20260902222338 | 61 | 0 | 0.0 | 0.0 | 0.01 | 0.27 | 0.27 | 99 | 1005.8 |
| 20260902221833 | 61 | 0 | 0.0 | 0.0 | 0.01 | 0.27 | 0.27 | 99 | 1005.8 |
| 20260902221336 | 61 | 0 | 0.0 | 0.0 | 0.01 | 0.27 | 0.27 | 99 | 1005.7 |
| 20260902220834 | 61 | 0 | 0.0 | 0.0 | 0.01 | 0.27 | 0.27 | 99 | 1005.7 |
| 20260902220335 | 61 | 0 | 0.0 | 0.0 | 0.01 | 0.27 | 0.27 | 99 | 1005.7 |
| 20260902215833 | 61 | 0 | 0.0 | 0.0 | 0.01 | 0.27 | 0.27 | 99 | 1005.7 |
| 20260902214833 | 61 | 0 | 0.0 | 0.0 | 0.01 | 0.27 | 0.27 | 99 | 1005.6 |
| 20260902214336 | 60 | 0 | 0.0 | 0.0 | 0.01 | 0.27 | 0.27 | 99 | 1005.6 |
| 20260902213336 | 60 | 0 | 0.0 | 0.0 | 0.01 | 0.27 | 0.27 | 99 | 1005.4 |
| 20260902212833 | 60 | 0 | 0.0 | 0.0 | 0.01 | 0.27 | 0.27 | 99 | 1005.4 |
| 20260902211834 | 60 | 0 | 0.0 | 0.0 | 0.01 | 0.26 | 0.26 | 99 | 1005.3 |
| 20260902211336 | 60 | 0 | 0.0 | 0.0 | 0.01 | 0.26 | 0.26 | 99 | 1005.2 |
| 20260902210335 | 60 | 0 | 0.0 | 0.0 | 0.01 | 0.26 | 0.26 | 99 | 1005.1 |
| 20260902205833 | 59 | 0 | 0.0 | 0.0 | 0.01 | 0.26 | 0.26 | 99 | 1005.1 |
| 20260902204833 | 59 | 0 | 0.0 | 0.0 | 0.01 | 0.26 | 0.26 | 99 | 1005.0 |
| 20260902203335 | 59 | 212 | 0.0 | 7.0 | 0.01 | 0.26 | 0.26 | 99 | 1004.8 |
| 20260902202833 | 59 | 214 | 0.0 | 7.0 | 0.01 | 0.26 | 0.26 | 99 | 1004.8 |
| 20260902201834 | 59 | 208 | 2.0 | 9.0 | 0.00 | 0.26 | 0.26 | 99 | 1004.4 |
| 20260902201333 | 59 | 224 | 5.0 | 9.0 | 0.01 | 0.25 | 0.25 | 99 | 1004.3 |
| 20260902200336 | 59 | 218 | 7.0 | 13.0 | 0.02 | 0.25 | 0.25 | 99 | 1004.1 |
| 20260902195833 | 59 | 210 | 8.0 | 13.0 | 0.02 | 0.25 | 0.25 | 99 | 1004.0 |
| 20260902195337 | 59 | 177 | 9.0 | 11.0 | 0.02 | 0.25 | 0.25 | 99 | 1004.0 |
| 20260902194833 | 59 | 180 | 9.0 | 10.0 | 0.02 | 0.25 | 0.25 | 99 | 1004.0 |
| 20260902194334 | 59 | 205 | 9.0 | 10.0 | 0.02 | 0.25 | 0.25 | 99 | 1004.0 |
| 20260902193834 | 59 | 196 | 7.0 | 8.0 | 0.02 | 0.25 | 0.25 | 99 | 1004.0 |
| 20260902193335 | 59 | 0 | 0.0 | 4.0 | 0.02 | 0.25 | 0.25 | 99 | 1004.1 |
| 20260902192833 | 59 | 0 | 0.0 | 0.0 | 0.02 | 0.25 | 0.25 | 99 | 1004.2 |
| 20260902192337 | 59 | 219 | 0.0 | 4.0 | 0.02 | 0.25 | 0.25 | 99 | 1004.1 |
| 20260902190834 | 59 | 0 | 0.0 | 0.0 | 0.01 | 0.24 | 0.24 | 98 | 1003.9 |
| 20260902185834 | 59 | 0 | 0.0 | 0.0 | 0.01 | 0.24 | 0.24 | 98 | 1003.9 |
| 20260902185338 | 59 | 0 | 0.0 | 0.0 | 0.02 | 0.23 | 0.23 | 98 | 1003.9 |
| 20260902184833 | 59 | 0 | 0.0 | 0.0 | 0.02 | 0.23 | 0.23 | 98 | 1003.7 |
| 20260902183834 | 59 | 205 | 0.0 | 2.0 | 0.03 | 0.23 | 0.23 | 98 | 1003.8 |
| 20260902182833 | 59 | 205 | 0.0 | 4.0 | 0.05 | 0.23 | 0.23 | 98 | 1003.7 |
| 20260902181833 | 58 | 0 | 1.0 | 1.0 | 0.06 | 0.23 | 0.23 | 98 | 1003.6 |
| 20260902180833 | 58 | 0 | 0.0 | 0.0 | 0.07 | 0.23 | 0.23 | 98 | 1003.6 |
| 20260902175833 | 58 | 0 | 0.0 | 0.0 | 0.07 | 0.22 | 0.22 | 98 | 1003.6 |
| 20260902174833 | 58 | 0 | 0.0 | 0.0 | 0.06 | 0.21 | 0.21 | 98 | 1003.7 |
| 20260902173835 | 58 | 0 | 0.0 | 0.0 | 0.06 | 0.20 | 0.20 | 98 | 1003.8 |
| 20260902172833 | 58 | 0 | 0.0 | 0.0 | 0.05 | 0.19 | 0.19 | 98 | 1003.7 |
| 20260902171833 | 59 | 0 | 0.0 | 0.0 | 0.04 | 0.17 | 0.17 | 98 | 1003.8 |
| 20260902170833 | 58 | 0 | 0.0 | 0.0 | 0.04 | 0.16 | 0.16 | 98 | 1003.9 |
| 20260902165833 | 59 | 0 | 0.0 | 0.0 | 0.03 | 0.16 | 0.16 | 98 | 1003.9 |
| 20260902164833 | 59 | 0 | 0.0 | 0.0 | 0.05 | 0.15 | 0.15 | 97 | 1004.2 |
| 20260902162833 | 59 | 0 | 0.0 | 0.0 | 0.05 | 0.13 | 0.13 | 97 | 1004.6 |
| 20260902161833 | 58 | 0 | 0.0 | 0.0 | 0.06 | 0.13 | 0.13 | 97 | 1004.7 |
| 20260902155833 | 58 | 0 | 0.0 | 0.0 | 0.08 | 0.12 | 0.12 | 97 | 1005.1 |
| 20260902154833 | 58 | 0 | 0.0 | 0.0 | 0.08 | 0.11 | 0.11 | 97 | 1005.2 |
| 20260902154336 | 58 | 0 | 0.0 | 0.0 | 0.07 | 0.10 | 0.10 | 97 | 1005.2 |
| 20260902152833 | 59 | 0 | 0.0 | 0.0 | 0.07 | 0.09 | 0.09 | 97 | 1005.2 |
| 20260902151833 | 59 | 0 | 0.0 | 0.0 | 0.06 | 0.07 | 0.07 | 97 | 1005.2 |
| 20260902145833 | 59 | 0 | 0.0 | 0.0 | 0.03 | 0.04 | 0.04 | 96 | 1005.4 |
| 20260902144833 | 59 | 0 | 0.0 | 0.0 | 0.01 | 0.03 | 0.03 | 96 | 1005.4 |
| 20260902142833 | 59 | 0 | 0.0 | 0.0 | 0.01 | 0.03 | 0.01 | 96 | 1005.4 |
| 20260902141832 | 59 | 0 | 0.0 | 0.0 | 0.01 | 0.03 | 0.01 | 96 | 1005.6 |
| 20260902140833 | 59 | 0 | 0.0 | 0.0 | 0.01 | 0.03 | 0.01 | 96 | 1005.7 |
| 20260902135834 | 59 | 0 | 0.0 | 0.0 | 0.01 | 0.02 | 0.01 | 95 | 1005.7 |